CDT,Max TemperatureF,Mean TemperatureF,Min TemperatureF,Max Dew PointF,MeanDew PointF,Min DewpointF,Max Humidity, Mean Humidity, Min Humidity, Max Sea Level PressureIn, Mean Sea Level PressureIn, Min Sea Level PressureIn, Max VisibilityMiles, Mean VisibilityMiles, Min VisibilityMiles, Max Wind SpeedMPH, Mean Wind SpeedMPH, Max Gust SpeedMPH,PrecipitationIn, CloudCover, Events, WindDirDegrees
2013-6-1,79,72,66,74,68,64,100,95,78,29.98,29.91,29.83,10,9,0,18,7,30,0.98,6,Fog-Rain-Thunderstorm,177
2013-6-2,79,71,64,66,62,56,100,77,53,30.01,29.98,29.94,10,9,3,10,4,,0.00,4,,327
2013-6-3,80,67,55,62,58,55,100,80,53,30.06,30.01,29.94,10,6,2,9,3,,0.00,1,,8
2013-6-4,83,71,60,69,63,59,99,74,50,30.04,29.98,29.92,10,10,9,8,2,,0.00,1,,69
2013-6-5,86,74,63,71,67,63,96,74,58,29.96,29.90,29.72,10,10,10,15,3,24,0.00,2,Thunderstorm,291
2013-6-6,80,72,66,66,64,62,89,72,63,29.89,29.86,29.81,10,10,10,10,5,,0.00,4,,339
2013-6-7,82,73,63,62,57,50,87,58,34,29.94,29.90,29.85,10,10,10,14,5,18,0.00,3,,333
2013-6-8,86,74,63,62,59,54,95,64,34,29.99,29.94,29.90,10,10,10,10,3,,0.00,3,,135
2013-6-9,85,73,62,70,65,61,95,76,47,29.94,29.90,29.84,10,10,8,17,5,25,0.00,2,Rain,190
2013-6-10,93,78,63,70,67,62,99,69,41,29.94,29.91,29.88,10,10,10,16,6,20,0.00,0,,224
2013-6-11,96,81,67,73,70,67,97,68,44,30.03,29.99,29.94,10,10,10,12,4,,0.00,0,,217
2013-6-12,95,85,75,74,72,68,85,64,43,30.05,29.99,29.93,10,10,10,17,9,25,0.00,0,,218
2013-6-13,96,86,75,76,72,68,89,66,48,29.98,29.94,29.88,10,10,10,16,8,23,0.00,2,,279
2013-6-14,89,78,66,69,65,60,92,66,43,30.05,30.00,29.96,10,10,10,8,3,,0.00,0,,81
2013-6-15,90,76,64,68,65,62,94,68,41,30.07,30.02,29.96,10,10,10,8,2,,0.00,1,,114
2013-6-16,91,81,71,75,70,68,90,76,50,30.04,29.99,29.93,10,10,10,8,3,,0.01,4,Rain,220
2013-6-17,87,78,70,76,72,68,100,82,59,29.97,29.91,29.86,10,10,2,13,4,17,0.12,4,Rain-Thunderstorm,250
2013-6-18,85,77,69,72,68,66,100,82,54,30.01,29.95,29.89,10,10,10,10,4,,0.00,3,,7
2013-6-19,91,78,65,69,66,64,96,70,40,30.05,30.01,29.96,10,10,10,8,2,,0.00,0,,51
2013-6-20,93,80,67,70,69,66,95,68,43,30.11,30.07,30.03,10,10,10,8,3,,0.00,0,,119
2013-6-21,93,82,70,73,72,69,96,71,49,30.14,30.08,30.04,10,10,10,8,3,,0.00,1,,125
2013-6-22,93,81,70,72,71,66,97,77,50,30.11,30.06,30.00,10,9,2,23,5,31,0.09,3,Rain-Thunderstorm,164
2013-6-23,94,81,69,74,71,69,99,71,46,30.06,30.02,29.97,10,10,9,8,3,,0.00,0,,165
2013-6-24,94,82,70,73,71,69,97,68,44,30.11,30.04,29.99,10,10,10,10,4,17,0.00,0,,166
2013-6-25,93,84,75,73,71,70,87,65,47,30.05,30.00,29.92,10,10,10,21,8,26,0.00,0,,190
2013-6-26,95,86,76,74,71,69,85,62,47,29.97,29.92,29.86,10,10,10,16,9,25,0.00,0,,211
2013-6-27,101,88,74,75,71,66,88,60,37,29.96,29.92,29.86,10,10,10,10,5,,0.00,1,,254
2013-6-28,97,88,77,76,71,62,84,61,32,29.87,29.82,29.75,10,10,9,10,5,17,0.00,4,,310
2013-6-29,93,80,68,66,60,53,82,51,27,29.82,29.78,29.73,10,10,10,14,6,20,0.00,1,,306
2013-6-30,86,74,65,66,60,55,76,59,42,29.88,29.84,29.76,10,10,8,15,6,23,0.02,4,Rain,329